Location: Brachbach
(49.1847°N, 9.7240°E)
Time: 06:33:00
(UTC+00:00)

Cosmos 1025 Rocket - Pass Details

Date: 04 August 2024
Orbit: 590 x 612 km, 82.5° (Epoch: 07 September)

Event Time Altitude Azimuth Distance (km) Brightness Sun altitude
Rises 02:54:08 0° 6° (N) 2,882 7.3 -9.4°
Reaches altitude 10° 02:57:44 10° 37° (NE) 1,976 7.2 -9.0°
Maximum altitude 02:59:31 12° 61° (ENE) 1,829 7.0 -8.8°
Drops below altitude 10° 03:01:19 10° 86° (E) 1,973 6.6 -8.5°
Sets 03:04:53 0° 117° (ESE) 2,874 6.8 -8.1°
